Regional Weather Roundup
Issued by NWS Spokane, WA

Home | Current Version | Previous Version | Text Only | Print | Product List | Glossary On
Versions: 1 2 3 4 5 6 7 8 9 10 11 12 13 14 15 16 17 18 19 20 21 22 23 24 25 26 27 28 29 30 31 32 33 34 35 36 37 38 39 40 41 42 43 44 45 46 47 48 49 50
000
NZUS01 KOTX 221025
RWROTX

Eastern Washington/Northern Idaho Roundup
National Weather Service, Spokane WA
300 AM PDT SUN OCT 22 2017

Note: "fair" indicated few or no clouds below 12,000 feet with no
significant weather and/or obstructions to visibility.

...Northeast Washington and Northern Idaho Panhandle...

CITY           SKY/WX    TMP DP  RH WIND       PRES   REMARKS
Spokane Intl   LGT RAIN  50  48  93 SW30G37   29.75R
Spokane Downto LGT RAIN  53  49  86 SW15G28   29.76R
Coeur d Alene  LGT RAIN  52  48  87 SW22G33   29.75R
Deer Park      LGT RAIN  51  49  92 SW16      29.72F
Sandpoint      LGT RAIN  41  41 100 CALM      29.71F

...Southeast Washington and southern Idaho Panhandle...

CITY           SKY/WX    TMP DP  RH WIND       PRES   REMARKS
Walla Walla    CLOUDY    65  44  46 S30G40    29.82S
Pullman/Moscow LGT RAIN  48  43  82 S8        29.86S
Lewiston       CLOUDY    56  44  64 S28G37    29.85S
Lowell           N/A     42  41  96 N3        29.98F
Grangeville    FAIR      50  37  62 S43G55    29.86S

...Columbia Basin...

CITY           SKY/WX    TMP DP  RH WIND       PRES   REMARKS
Ephrata        LGT RAIN  46  42  86 SW6       29.73S
Moses Lake     LGT RAIN  48  46  93 S9        29.75F
Pasco            N/A    N/A N/A N/A MISG        N/A
Richland       RAIN      62  52  68 SW17G29   29.80R
Hermiston      LGT RAIN  65  48  54 SW23G30   29.82R
Pendleton      CLOUDY    61  44  53 S25G38    29.85R

...East Slopes Cascades...

CITY           SKY/WX    TMP DP  RH WIND       PRES   REMARKS
The Dalles     LGT RAIN  49  48  97 CALM      29.86R FOG
Yakima         LGT RAIN  48  46  93 CALM      29.77F
Ellensburg     LGT RAIN  43  41  93 E3        29.76F
Stampede Pass  LGT RAIN  44  43  96 SW13G30   29.73S FOG
Wenatchee      CLOUDY    37  37 100 NW6       29.75R
Omak           CLOUDY    41  41 100 S6        29.72R
Chelan           N/A     39  36  87 MISG        N/A
Sunnyside      RAIN      56  52  85 W10G24    29.81R

...Southern British Columbia...

CITY           SKY/WX    TMP DP  RH WIND       PRES   REMARKS
Penticton      CLOUDY    45  39  81 SE14G21   29.65R
Cranbrook      LGT SNOW  36  34  93 SE5       29.67F FOG
Osoyoos          N/A     43  41  93 S9          N/A
Creston          N/A     34  34 100 E3          N/A

...Western Montana...

CITY           SKY/WX    TMP DP  RH WIND       PRES   REMARKS
Kalispell      LGT RAIN  42  40  92 SW9       29.74F
Libby            N/A     36  36 100 CALM      29.72S
Missoula       CLOUDY    46  39  76 SE14      29.87F

...Neighboring Cities...

CITY           SKY/WX    TMP DP  RH WIND       PRES   REMARKS
Seattle        CLOUDY    55  52  89 SW18G28   29.74S
Portland       LGT RAIN  60  57  89 SW20G26   29.91R
Boise          CLOUDY    48  39  71 SE14      30.20S
Great Falls    CLOUDY    50  30  46 SW18G30   29.71F
Calgary        MOCLDY    36  25  64 SW3       29.39F



USA.gov is the U.S. government's official web portal to all federal, state and local government web resources and services.